Погода Огурцово

Погода Огурцово : погода сейчас, прогноз погоды и архив. Всё, что Вы хотите узнать о погоде Огурцово!

Хотите узнать прогноз погоды Огурцово? Тогда Вам сюда: Погода Огурцово

Поиск расширенной информации на нашем сайте:

Другие новости

Новости СМИ2

Главная страница сайта

Новости сайта

03.07.2017

Напоминаем, что на нашем специализированном сайте Метеоцентр.Азия вы можете получить высокодетализированные автоматические прогнозы погоды по пунктам России, СНГ и мира в авиационном формате (включающие направление и скорость ветра, видимость, явления погоды, количество и форму облачности, нижнюю и верхнюю границу облачности).

Рекомендуем: Строительство и монтаж волс terza волс строительство.

Погода Огурцово - сегодня

Время (UTC), дата Ветер
(°,м/с) 
Видим.   Явления Облачность Т
(°С)
Тd
(°С)
f(%) Тe
(°С)
Pmin
(гПа)
dP
(гПа)
Po
(мм)
O2
(г/м3)
Тmin Tmax R s Состояние
почвы
03 24.07.17 180 (Ю) 9000 м  дымка{туман}  8/6 1000 м верхняя 
[Cu hum|Ci fib]
+20.1 +18.3 89 +35  1009.8  -0.5  746  276           
06 24.07.17 180 (Ю) 26000 м  {туман}  10/8 1000 м верхняя 
[Cu hum|Ci fib]
+24.2 +16.2 61 +35  1008.8  -0.8  745  272           
09 24.07.17 180 (Ю) 28000 м    10/6 600 м кучево-дожд., верхняя 
[Cb cap|Ci sp]
+24.4 +15.6 58 +34  1007.8  -0.9  745  272           
12 24.07.17 140 (ЮВ) 27000 м    10/8 600 м верхняя 
[Sc|Ci sp]
+24 +16.6 63 +36  1006.5  -1.4  744  272    +25       
15 24.07.17 130 (ЮВ) 18000 м    10/8 600 м кучево-дожд., верхняя 
[Cb cap|Ci fib]
+21.9 +16.2 70 +33  1006  -0.5  743  274           
18 24.07.17 150 (ЮВ) 20000 м  гроза без осадков{ливн. осадки}  8/8 600 м кучево-дожд. 
[Cb cap]
+21.4 +15.4 69 +31  1003.7  -2.4  741  274           
21 24.07.17 120 (ЮВ) 10 км  гроза без осадков{ливн. осадки}  10/10 600 м кучево-дожд. 
[Cb cap]
+19.9 +15.5 76 +31  1001.6  -2.1  740  275           
00 25.07.17 140 (ЮВ) 4{10}  20000 м  {гроза}  4/0 верхняя 
[Ci fib]
+20 +14.9 72 +29  999.8  -1.8  738  274  +19.6    0.4    влажная 
03 25.07.17 220 (ЮЗ) 4{10}  24000 м    10/4 1000 м верхняя 
[Cu hum|Ci fib]
+21.8 +15.9 69 +33  1000  0.3  739  272           
06 25.07.17 250 (З) 5{10}  27000 м    10/10 600 м кучево-дожд. 
[Cb cap]
+21.2 +14.5 66 +29  1001.2  1.2  740  274           
09 25.07.17 260 (З) 6-10{11}  19000 м  в посл. час ливневой дождь  10/10 600 м кучево-дожд. 
[Cb cap]
+21.5 +16 71 +32  1001.7  0.5  740  273           
12 25.07.17 220 (ЮЗ) 3{10}  22000 м  {ливн. осадки}  10/10 600 м кучево-дожд. 
[Cb cap]
+21.3 +16.2 73 +32  1002.4  0.3  740  273    +22.3  0.0     
15 25.07.17 230 (ЮЗ) 23000 м    10/8 600 м средняя, верхняя 
[Sc|Ac trans|Ci fib]
+20.3 +16.1 77 +31  1002.8  0.3  741  274           
18 25.07.17 210 (ЮЗ) 20000 м    8/6 1000 м верхняя 
[Sc|Ci ing]
+17.9 +15.8 88 +29  1003.3  0.4  741  277           
21 25.07.17 240 (ЮЗ) 20000 м    10/10 600 м 
[Sc]
+17.8 +16.1 90 +30  1003.5  0.1  741  277           
00 26.07.17 260 (З) 16000 м    10/9 1000 м верхняя 
[Sc|Ci fib]
+17.8 +16.2 90 +30  1004.5  1.1  742  277  +17.1        сухая 
03 26.07.17 280 (З) 24000 м    6/6 1000 м 
[Cu hum]
+21.9 +17.4 76 +35  1005  0.6  742  273           
06 26.07.17 230 (ЮЗ) 27000 м    8/8 600 м кучево-дожд. 
[Cb cap]
+24.4 +16.7 62 +36  1005.3  0.5  743  271           
09 26.07.17 170 (Ю) 28000 м    8/8 600 м кучево-дожд., верхняя 
[Cb cap|Ci fib]
+25.1 +16.5 59 +37  1005  -0.3  743  270           
12 26.07.17 180 (Ю) 26000 м    8/6 600 м кучево-дожд., верхняя 
[Cb cap|Ci fib]
+25.5 +16.9 59 +38  1004.9  743  270    +26.3       
15 26.07.17 180 (Ю) 22000 м    6/3 600 м верхняя 
[Sc|Ci fib]
+20.3 +17.1 82 +33  1005.5  0.2  743  275           
18 26.07.17 тихо ()   20000 м    4/0 верхняя 
[Ci fib]
+17.3 +15.7 90 +27  1005.7  0.1  743  278           
21 26.07.17 060 (СВ) 20000 м  туман поземный  6/3 600 м верхняя 
[Sc|Ci fib]
+16.6 +15.4 93 +28  1005.5  -0.3  743  279           
00 27.07.17 тихо ()   8000 м  туман поземный  8/3 600 м верхняя 
[Sc|Ci fib]
+18 +17.1 94 +31  1005.8  0.4  743  277  +15.7        влажная 
03 27.07.17 160 (Ю) 19000 м    8/5 1000 м верхняя 
[Sc|Ci fib]
+23.6 +17.4 68 +37  1005.2  -0.3  743  272           
Время (UTC), дата Ветер
(°,м/с) 
Видим.   Явления Облачность Т
(°С)
Тd
(°С)
f(%) Тe
(°С)
Pmin
(гПа)
dP
(гПа)
Po
(мм)
O2
(г/м3)
Тmin Tmax R s Состояние
почвы

Для получения пояснительной информации подведите курсор к названию столбца.

ПОГОДА Огурцово - архив

Всё, что Вы хотите узнать о погоде Огурцово - удобно и подробно!

Выберите нужную дату (начиная с 1 января 2015* года) и нажмите кнопку "Найти".
Будут отображены архивные сводки погоды по пункту Огурцово, начиная с указанной даты.


Отображать данные в формате CSV (для использования в таблицах Excel)


Внимание! Наш архив погоды предназначен исключительно для личного некоммерческого использования в познавательных целях. Если Вам необходимы официальные справки о состоянии погоды (для производственных, юридических, коммерческих и т.п. целей), обращайтесь в органы Росгидромета.

*Примечание: данная дата относится к архиву по метеостанциям СССР (Россия, СНГ, Балтия).
Архив по метеостанциям Зарубежной Европы и Азии (кроме Китая) хранится 10 дней, по другим регионам земного шара (Китай, Африка, Америка, Австралия, Океания) - 1 день.

Огурцово - район местоположения метеостанции


Название, широта, долгота, высота метеостанции:
Огурцово 54.9°ш. 82.9°д. 133 м над ур. моря [Российская Федерация]

Дополнительная информация

В oтличие oт бoльшинства пoгoдных сайтoв мы публикуем пoдрoбную метеoинфoрмацию в детальнoм прoфессиoнальнoм фoрмате.

Характеристики температуры и влажнoсти вoздуха измеряются на высoте 2 м в тени вдали oт зданий и деревьев.
Скoрoсть ветра измеряется на высoте 10 м (на урoвне рoста челoвека скoрoсть ветра ниже в 1.5-2 раза). Если метеoстанция нахoдится в гoрoде или в лесу, тo скoрoсть ветра занижена на 2-4 м/с пo сравнению с oткрытым местoм. Скoрoсть ветра над акватoриями крупных рек и oзёр, а также на вершинах хoлмoв на 2-5 м/с выше, чем в oбычных услoвиях.
Атмoсфернoе давление в разных тoчках местнoсти мoжет значительнo oтличаться oт давления на метеoстанции, в зависимoсти oт услoвий рельефа (при пoдъёме на 10 м давление пoнижается примернo на 1 мм рт.ст.).